FREGAT DEB, 45847

Orbit data source: Space-Track

FREGAT DEB, 45847 is space debris in LEO originally from a launch on Mon, 18 Jul 2011 UTC launched from the Tyuratam Missile And Space Complex (TTMTR). Debris objects in space refer to the collection of defunct objects orbiting the Earth. Examples of debris include non-operational satellites, rocket bodies, and fragments generated from explosions, collisions, or faulty payload assembly.

Loading next visibility...
FREGAT DEB details
Identifier
45847, 2011-037CH
Orbit
LEO
Last TLE update16 hours ago
Origin
Flag of CISVVKO VKS (CIS)
ManufacturerLavochkin
MissionSpacecraft
Bus & MotorUnknown
MassUnknown
Launch date (UTC)
2011-07-18 (13 years ago)
Launch vehicleUnknown
Launch site
Tyuratam Missile And Space Complex (TTMTR)
Object type
Payload
Rocket body
Debris
Shape & HBRUnknown
Radar Cross SectionSmall (<0.1 m²)

Expand to show TLE details & history

TLE from 16 hours ago
0 FREGAT DEB
1 45847U 11037CH  24361.15217126  .00090572  00000-0  86076-2 0  9993
2 45847  51.4023 306.6919 1396906 128.9338 244.4620 12.47987189191545
Epoch: 2024-12-26T03:39Z
Definitive object data (Epoch: 2024-12-26T03:39:07.596Z)
Latitude-0.00008°
Longitude156.77451°
Altitude2,059.7 km
Speed6.614 km/s
True Right ascension20h 26m 46s
True Declination0° 00' 00"
Sunlit
Object was in daylight at TLE epoch
Visualization TLE readout
Latitude5.60446°
Longitude-29.79935°
Altitude598.255 km
Speed7.971 km/s
Apparent Right ascension07h 40m 32s
Apparent Declination-16° 04' 23"
Sunlit
Object is in full shadow
Visualization observer readout
Local Sidereal Time19:12:16
Azimuth343.513° N
Elevation-65.375°
Doppler factor1
Orbital elements
Apogee altitude2,570.202 km
Perigee altitude376.626 km
Semi-major axis7,851.551 km
Eccentricity0.1396906
Inclination51.4023°
RAAN306.6919°
Arg. of periapsis128.9338°
True anomaly231.15161°
Mean anomaly244.462°
Eccentric anomaly237.69702°
Mean motion3.11968 °/min
BSTAR0.0086076
Orbital period115.4 mins
Loading maneuver chart data...
Loading historical data...
Loading historical data...
Loading historical data...
Loading historical data...
Loading historical data...
Loading historical data...
Loading historical data...

FREGAT DEB Visibility forecast

Observer location: undefined°, undefined

Span
Click to sort rows by Start time (UTC) header in descending order
Start Az.
Max El. time (UTC)
Max El. Az.
Max El.
End time (UTC)
End Az.
10 mins2024-12-26 21:02:32.703Z163.746° S2024-12-26 21:08:32.703Z126.701° SE17.04°2024-12-26 21:12:32.703Z94.633° ESE
14 mins2024-12-26 23:00:32.703Z218.349° SW2024-12-26 23:09:32.703Z118.54° SE42.203°2024-12-26 23:14:32.703Z59.388° ENE
9 mins2024-12-27 01:04:32.703Z270.873° WNW2024-12-27 01:09:32.703Z325.249° NNW30.677°2024-12-27 01:13:32.703Z36.615° NE
4 mins2024-12-27 03:09:32.703Z329.11° NNW2024-12-27 03:11:32.703Z2.424° NNE16.134°2024-12-27 03:13:32.703Z37.502° NE
4 mins2024-12-27 05:10:32.703Z330.047° NNW2024-12-27 05:12:32.703Z27.885° NE28.346°2024-12-27 05:14:32.703Z87.015° E
|